Location: Central Coast NSW, Australia
(33.2407°S, 151.4316°E)
Time: 23:02:19
(UTC+11:00)

ISS - Pass Details

Date: 28 January 2019
Orbit: 403 x 411 km, 51.6° (Epoch: 23 February)

Event Time Altitude Azimuth Distance (km) Brightness Sun altitude
Exits shadow 05:01:49 26° 324° (NW) 862 -2.7 -13.9°
Maximum altitude 05:03:34 75° 46° (NE) 433 -3.7 -13.5°
Drops below altitude 10° 05:06:54 10° 130° (SE) 1,492 0.5 -13.0°
Sets 05:09:00 0° 132° (SE) 2,358 1.9 -12.6°
